Regional Weather Roundup
Issued by NWS

Home | Current Version | Previous Version | Graphics & Text | Print | Product List | Glossary On
Versions: 1 2 3 4 5 6 7 8 9 10 11 12 13 14 15 16 17 18 19 20 21 22 23 24 25 26 27 28 29 30 31 32 33 34 35 36 37 38 39 40 41 42 43 44 45 46 47 48 49 50
000
ASUS43 KLMK 162302
RWRKY
KENTUCKY REGIONAL WEATHER ROUNDUP
NATIONAL WEATHER SERVICE LOUISVILLE KY
600 PM EST SAT DEC 16 2017

NOTE "FAIR" INDICATES FEW OR NO CLOUDS BELOW 12,000 FEET
WITH NO SIGNIFICANT WEATHER AND/OR OBSTRUCTIONS TO VISIBILITY.

KYZ001>023-026-027-061>063-070>075-170000-
WESTERN AND SOUTH CENTRAL KENTUCKY

CITY           SKY/WX    TMP DP  RH WIND       PRES   REMARKS
PADUCAH        CLOUDY    48  28  46 S3        30.12R
HENDERSON      CLOUDY    47  29  49 S13       30.12R
OWENSBORO      CLOUDY    44  30  57 S9        30.13R
HOPKINSVILLE   CLOUDY    48  27  43 S7        30.15R
BOWLING GREEN  CLEAR     46  30  53 S6        30.17R
GLASGOW        NOT AVBL
$$

KYZ024-025-028>034-038-045-046-053-170000-
NORTH CENTRAL KENTUCKY

CITY           SKY/WX    TMP DP  RH WIND       PRES   REMARKS
LOUISVILLE/SDF MOCLDY    49  29  46 S9        30.12R
LOUISVILLE/LOU CLEAR     46  29  51 S8        30.13R
FORT KNOX      CLEAR     44  28  52 S5        30.11R
$$

KYZ035>037-039>044-047>052-055>060-089>105-170000-
NORTHEAST KENTUCKY

CITY           SKY/WX    TMP DP  RH WIND       PRES   REMARKS
LEXINGTON      CLEAR     43  28  55 S10       30.13R
COVINGTON      PTCLDY    45  28  51 S10       30.08R
FRANKFORT      CLEAR     45  26  47 S6        30.12R
$$

KYZ054-064>069-076>088-106>120-170000-
SOUTHEAST KENTUCKY

CITY           SKY/WX    TMP DP  RH WIND       PRES   REMARKS
JACKSON        CLEAR     44  26  49 VRB3      30.14S
LONDON         CLEAR     44  26  49 SW6       30.17R
SOMERSET       NOT AVBL
MIDDLESBORO    CLOUDY    41  28  59 SW3       30.22R
MONTICELLO     PTCLDY    36  27  69 VRB3      30.20R
$$





USA.gov is the U.S. government's official web portal to all federal, state and local government web resources and services.